Location: Newark
(16.3678°N, 77.8722°E)
Time: 04:32:41
(UTC+00:00)

Tiros 1 - Pass Details

Date: 10 December 2019
Orbit: 630 x 664 km, 48.4° (Epoch: 28 January)

Event Time Altitude Azimuth Distance (km) Brightness Sun altitude
Rises 09:24:03 0° 307° (NW) 2,905 10.6 34.1°
Reaches altitude 10° 09:26:29 10° 299° (WNW) 1,998 10.0 33.6°
Maximum altitude 09:30:44 38° 231° (SW) 961 11.1 32.9°
Drops below altitude 10° 09:35:00 10° 163° (SSE) 2,004 10.1 32.1°
Sets 09:37:27 0° 155° (SSE) 2,915 10.7 31.7°
